STARLINK-4605 (53616 NORAD) Tracking and Keplerian Element Data

This shows tracking and keplerian element data for the satellite.

Feedback or suggestion? Click here.




ElementValue
Catalog53616
NameSTARLINK-4605
Epoch Orbit130
Epoch Day324.91667824
Epoch Year2022
RAAN232.6102
Inclination53.2175
Eccentricity0.0001462
Argument of Perigee55.0269
Mean Anonmoly249.7034
Mean Motion15.14599797
Decay Rate-0.01146047
L11 53616U 22104AE 22324.91667824 -.01146047 00000+0 -66585-1 0 9991
L22 53616 53.2175 232.6102 0001462 55.0269 249.7034 15.14599797 1302



Live tracking and technical data element details for STARLINK-4605 (NORAD 53616). STARLINK-4605 can be tracked NOW for your location showing map with azimuth and elevation plus other details from your city location.







IsCatalogInMostPopularTable: catalog: 53616, numindb: 1
Update: records affected: 1



GetName: 53616 STARLINK-4605

Hit Count: updated at: Thu, 08 Dec 2022 19:53:44 GMT